Regional Weather Roundup
Issued by NWS

Home | Current Version | Previous Version | Text Only | Print | Product List | Glossary Off
Versions: 1 2 3 4 5 6 7 8 9 10 11 12 13 14 15 16 17 18 19 20 21 22 23 24 25 26 27 28 29 30 31 32 33 34 35 36 37 38 39 40 41 42 43 44 45 46 47 48 49 50

000
ASUS43 KLMK 161110
RWRKY
KENTUCKY REGIONAL WEATHER ROUNDUP
NATIONAL WEATHER SERVICE LOUISVILLE KY
700 AM EDT WED AUG 16 2017

NOTE "FAIR" INDICATES FEW OR NO CLOUDS BELOW 12,000 FEET
WITH NO SIGNIFICANT WEATHER AND/OR OBSTRUCTIONS TO VISIBILITY.

KYZ001>023-026-027-061>063-070>075-161200-
WESTERN AND SOUTH CENTRAL KENTUCKY

CITY           SKY/WX    TMP DP  RH WIND       PRES   REMARKS
PADUCAH        CLEAR     72  69  90 CALM      29.97R
HENDERSON      CLEAR     70  70 100 CALM      29.99R FOG
OWENSBORO      MOCLDY    70  69  97 SE5       30.00R
HOPKINSVILLE   PTCLDY    71  71  98 CALM      30.00R
BOWLING GREEN  CLOUDY    74  72  93 CALM      30.02R
GLASGOW        CLOUDY   N/A N/A N/A CALM      30.03R
$$

KYZ024-025-028>034-038-045-046-053-161200-
NORTH CENTRAL KENTUCKY

CITY           SKY/WX    TMP DP  RH WIND       PRES   REMARKS
LOUISVILLE/SDF MOCLDY    74  71  91 CALM      30.00R FOG
LOUISVILLE/LOU CLEAR     70  70 100 CALM      30.02R FOG
FORT KNOX      PTCLDY    68  68 100 CALM      30.01R FOG
$$

KYZ035>037-039>044-047>052-055>060-089>105-161200-
NORTHEAST KENTUCKY

CITY           SKY/WX    TMP DP  RH WIND       PRES   REMARKS
LEXINGTON      CLEAR     69  66  90 S5        30.04R FOG
COVINGTON      MOCLDY    71  69  93 CALM      30.03R
FRANKFORT      CLEAR     68  65  90 CALM      30.03R FOG
$$

KYZ054-064>069-076>088-106>120-161200-
SOUTHEAST KENTUCKY

CITY           SKY/WX    TMP DP  RH WIND       PRES   REMARKS
JACKSON        FOG       69  68  96 CALM      30.07R VSB 1/4
LONDON         FOG       69  68  96 CALM      30.07R VSB 3/4
SOMERSET       FOG       66  66 100 CALM      30.07R VSB 1/2
MIDDLESBORO    CLOUDY    69  69 100 CALM      30.09R FOG
MONTICELLO     CLOUDY    69  69 100 CALM      30.07R FOG
$$





USA.gov is the U.S. government's official web portal to all federal, state and local government web resources and services.